Location: Great Falls
(47.5000°N, 111.3000°W)
Time: 14:34:37
(UTC-06:00)

OTV 5 (USA 277) - Visible Passes

Search period start: 24 June 2018 00:00
Search period end: 04 July 2018 00:00
Orbit: 313 x 320 km, 54.5° (Epoch: 21 June)

Date Brightness Start Highest point End Pass type
(mag) Time Alt. Az. Time Alt. Az. Time Alt. Az.
24 Jun ? 01:16:19 10° NW 01:18:31 52° NW 01:18:31 52° NW visible
24 Jun ? 22:22:07 10° NW 22:24:06 18° N 22:26:04 10° NE visible
24 Jun ? 23:56:35 10° NW 23:59:00 28° NNE 00:00:55 14° ENE visible
25 Jun ? 01:30:47 10° WNW 01:31:45 19° WNW 01:31:45 19° WNW visible
25 Jun ? 22:36:45 10° NW 22:38:48 19° N 22:40:51 10° NE visible
26 Jun ? 00:10:55 10° NW 00:13:33 49° NNE 00:14:14 37° ENE visible
26 Jun ? 22:51:10 10° NW 22:53:28 23° NNE 22:55:45 10° ENE visible
27 Jun ? 00:25:18 10° WNW 00:27:37 59° W 00:27:37 59° W visible
27 Jun ? 23:05:31 10° NW 23:08:03 36° NNE 23:10:14 13° E visible
28 Jun ? 00:39:54 10° WNW 00:41:05 20° W 00:41:05 20° W visible
28 Jun ? 23:19:51 10° NW 23:22:34 72° NNE 23:23:45 29° ESE visible
29 Jun ? 23:34:20 10° WNW 23:36:57 46° SW 23:37:18 43° S visible
30 Jun ? 22:14:27 10° NW 22:17:05 48° NNE 22:19:43 10° ESE visible
30 Jun ? 23:49:08 10° W 23:50:54 19° SW 23:50:54 19° SW visible
01 Jul ? 22:28:50 10° WNW 22:31:32 76° SW 22:33:42 14° SE visible
02 Jul ? 22:43:26 10° WNW 22:45:52 30° SW 22:47:25 17° SSE visible
03 Jul ? 22:58:40 10° W 23:00:03 13° SW 23:01:10 11° SSW visible
